Location: Camp Cheerful - Strongsville
(41.3172°N, 81.8018°W)
Time: 10:55:45
(UTC-04:00)

Hubble Space Telescope - Visible Passes

Search period start: 16 July 2018 00:00
Search period end: 26 July 2018 00:00
Orbit: 537 x 541 km, 28.5° (Epoch: 15 July)

Date Brightness Start Highest point End Pass type
(mag) Time Alt. Az. Time Alt. Az. Time Alt. Az.
18 Jul 2.8 05:32:37 10° SSW 05:34:43 14° S 05:36:48 10° SSE visible
19 Jul 2.8 05:22:09 10° SSW 05:24:13 13° S 05:26:17 10° SSE visible
20 Jul 2.7 05:12:20 11° SSW 05:13:44 13° S 05:15:42 10° SSE visible
21 Jul 2.7 05:02:44 12° SSW 05:03:14 12° S 05:05:00 10° SSE visible
22 Jul 2.9 04:53:17 11° S 04:53:17 11° S 04:54:09 10° S visible
